N16871 KEED-KFOW

Flight info

Callsign N16871
Flight time N/A
Altitude 3000
Route KEED DCT ZELMA DCT KL30K DCT KFOW
Aircraft SF50/L-SBDGRY/S

Departure

Time 2026-04-27 20:03
Airport Needles Airport (KEED)

Arrival

Time N/A
Airport KFOW
Time Latitude Longitude Altitude Speed Heading
2026-04-27 19:37 34.76267 -114.62062 919 ft 0 kts 201°
2026-04-27 19:45 34.76266 -114.62062 919 ft 0 kts 201°
2026-04-27 19:46 34.76275 -114.62017 920 ft 15 kts 30°
2026-04-27 19:46 34.76292 -114.62017 922 ft 0 kts 343°
2026-04-27 19:47 34.76294 -114.62021 924 ft 4 kts 236°
2026-04-27 19:47 34.76181 -114.61991 905 ft 23 kts 139°
2026-04-27 19:47 34.76099 -114.61898 897 ft 14 kts 175°
2026-04-27 19:47 34.76082 -114.61896 897 ft 0 kts 165°
2026-04-27 19:48 34.76084 -114.61893 897 ft 1 kts 341°
2026-04-27 19:48 34.76113 -114.61902 898 ft 11 kts 346°
2026-04-27 19:48 34.76182 -114.61994 905 ft 17 kts 323°
2026-04-27 19:49 34.76303 -114.62041 925 ft 16 kts 343°
2026-04-27 19:49 34.76405 -114.62078 940 ft 19 kts 344°
2026-04-27 19:49 34.76513 -114.62116 946 ft 18 kts 346°
2026-04-27 19:49 34.76645 -114.62036 940 ft 21 kts 31°
2026-04-27 19:50 34.76768 -114.61958 933 ft 16 kts 24°
2026-04-27 19:50 34.76876 -114.61894 927 ft 17 kts 37°
2026-04-27 19:50 34.76975 -114.61816 922 ft 17 kts 29°
2026-04-27 19:50 34.77078 -114.61743 914 ft 17 kts 31°
2026-04-27 19:51 34.77184 -114.61675 908 ft 17 kts 27°
2026-04-27 19:51 34.77257 -114.61629 903 ft 9 kts 28°
2026-04-27 19:51 34.77327 -114.61582 899 ft 20 kts 28°
2026-04-27 19:51 34.77412 -114.61571 895 ft 8 kts 333°
2026-04-27 19:52 34.77419 -114.61578 895 ft 0 kts 314°
2026-04-27 20:00 34.77430 -114.61600 895 ft 0 kts 244°
2026-04-27 20:00 34.77424 -114.61579 895 ft 0 kts 198°
2026-04-27 20:00 34.77279 -114.61612 902 ft 35 kts 210°
2026-04-27 20:01 34.77041 -114.61771 916 ft 43 kts 210°
2026-04-27 20:01 34.76750 -114.61966 934 ft 54 kts 209°
2026-04-27 20:01 34.76506 -114.62110 946 ft 21 kts 167°
2026-04-27 20:01 34.76300 -114.62039 927 ft 41 kts 165°
2026-04-27 20:02 34.76120 -114.61901 898 ft 26 kts 157°
2026-04-27 20:02 34.76063 -114.61975 898 ft 14 kts 300°
2026-04-27 20:02 34.76177 -114.62224 908 ft 72 kts 300°
2026-04-27 20:02 34.76532 -114.62989 1102 ft 121 kts 300°
2026-04-27 20:03 34.76968 -114.63852 1519 ft 119 kts 303°
2026-04-27 20:03 34.77365 -114.64816 1979 ft 141 kts 276°
2026-04-27 20:03 34.77519 -114.66110 2539 ft 177 kts 285°
2026-04-27 20:03 34.77819 -114.67616 3501 ft 183 kts 280°
2026-04-27 20:04 34.77921 -114.69364 3698 ft 236 kts 268°
2026-04-27 20:04 34.77837 -114.71317 3611 ft 266 kts 267°
2026-04-27 20:04 34.77811 -114.73407 3538 ft 229 kts 271°
2026-04-27 20:04 34.77824 -114.75300 4215 ft 235 kts 270°
2026-04-27 20:05 34.77821 -114.77418 4374 ft 264 kts 270°
2026-04-27 20:05 34.77838 -114.79690 4294 ft 255 kts 270°
2026-04-27 20:05 34.77855 -114.81678 4127 ft 223 kts 270°
2026-04-27 20:05 34.77873 -114.83629 3135 ft 237 kts 270°
2026-04-27 20:06 34.77892 -114.85539 3002 ft 212 kts 270°
2026-04-27 20:06 34.77942 -114.87250 2989 ft 213 kts 273°
2026-04-27 20:06 34.78019 -114.89273 3006 ft 258 kts 271°
2026-04-27 20:06 34.78038 -114.91424 3006 ft 238 kts 270°
2026-04-27 20:07 34.78041 -114.93349 2994 ft 232 kts 270°
2026-04-27 20:07 34.78058 -114.95400 3000 ft 249 kts 270°
2026-04-27 20:07 34.78079 -114.97546 3005 ft 256 kts 270°
2026-04-27 20:07 34.78097 -114.99695 3309 ft 249 kts 270°
2026-04-27 20:08 34.78114 -115.01800 3715 ft 244 kts 270°
2026-04-27 20:08 34.78132 -115.03847 4095 ft 247 kts 270°
2026-04-27 20:08 34.78148 -115.05968 4098 ft 258 kts 270°
2026-04-27 20:08 34.78164 -115.08194 4100 ft 262 kts 270°
2026-04-27 20:09 34.78184 -115.10405 4101 ft 263 kts 270°
2026-04-27 20:09 34.78202 -115.12628 4088 ft 263 kts 270°
2026-04-27 20:09 34.78217 -115.14860 4033 ft 262 kts 270°
2026-04-27 20:09 34.78230 -115.16927 3219 ft 242 kts 270°
2026-04-27 20:10 34.78254 -115.18722 3781 ft 173 kts 271°
2026-04-27 20:10 34.78288 -115.20070 4012 ft 154 kts 271°
2026-04-27 20:10 34.78303 -115.21393 4012 ft 175 kts 270°
2026-04-27 20:10 34.78307 -115.23117 4417 ft 217 kts 270°
2026-04-27 20:11 34.78310 -115.24840 5900 ft 185 kts 270°
2026-04-27 20:11 34.78320 -115.26329 7334 ft 168 kts 270°
2026-04-27 20:11 34.78366 -115.27690 8566 ft 157 kts 274°
2026-04-27 20:11 34.78430 -115.29206 8777 ft 211 kts 268°
2026-04-27 20:12 34.78334 -115.31194 8700 ft 257 kts 266°
2026-04-27 20:12 34.78361 -115.32683 8628 ft 273 kts 277°
2026-04-27 20:12 34.79205 -115.35696 8469 ft 269 kts 292°
2026-04-27 20:12 34.79878 -115.37689 8339 ft 255 kts 292°
2026-04-27 20:13 34.80554 -115.39768 8204 ft 270 kts 291°
2026-04-27 20:13 34.81248 -115.41922 8086 ft 275 kts 291°
2026-04-27 20:13 34.81961 -115.44103 7965 ft 279 kts 291°
2026-04-27 20:13 34.82679 -115.46302 7890 ft 279 kts 291°
2026-04-27 20:14 34.83392 -115.48490 7890 ft 277 kts 291°
2026-04-27 20:14 34.84097 -115.50664 7889 ft 275 kts 291°
2026-04-27 20:14 34.84796 -115.52815 7888 ft 273 kts 291°
2026-04-27 20:14 34.85492 -115.54960 7887 ft 271 kts 291°
2026-04-27 20:15 34.86170 -115.57054 7713 ft 262 kts 291°
2026-04-27 20:15 34.86828 -115.59078 6939 ft 255 kts 291°
2026-04-27 20:15 34.87499 -115.61154 6928 ft 268 kts 291°
2026-04-27 20:15 34.88183 -115.63267 6934 ft 269 kts 291°
2026-04-27 20:16 34.88815 -115.65213 6934 ft 270 kts 291°
2026-04-27 20:16 34.89502 -115.67340 6931 ft 270 kts 291°
2026-04-27 20:16 34.90190 -115.69469 6933 ft 270 kts 291°
2026-04-27 20:16 34.90879 -115.71601 6934 ft 270 kts 291°
2026-04-27 20:17 34.91566 -115.73732 6934 ft 270 kts 291°
2026-04-27 20:17 34.92254 -115.75867 6933 ft 270 kts 291°
2026-04-27 20:17 34.92941 -115.78000 6933 ft 271 kts 291°
2026-04-27 20:17 34.93398 -115.79419 6933 ft 271 kts 291°
2026-04-27 20:18 34.94320 -115.82284 6932 ft 272 kts 291°
2026-04-27 20:18 34.95010 -115.84430 6930 ft 272 kts 291°
2026-04-27 20:18 34.95699 -115.86574 6932 ft 271 kts 291°
2026-04-27 20:18 34.96387 -115.88718 6933 ft 272 kts 291°
2026-04-27 20:19 34.97075 -115.90861 6932 ft 272 kts 291°
2026-04-27 20:19 34.97765 -115.93008 6932 ft 272 kts 291°
2026-04-27 20:19 34.98451 -115.95155 6933 ft 271 kts 291°
2026-04-27 20:19 34.99135 -115.97294 6932 ft 270 kts 291°
2026-04-27 20:20 35.00033 -115.99298 6919 ft 270 kts 307°
2026-04-27 20:20 35.01370 -116.00907 6916 ft 271 kts 323°
2026-04-27 20:20 35.02958 -116.02061 6792 ft 274 kts 331°
2026-04-27 20:20 35.04615 -116.03158 6456 ft 250 kts 332°
2026-04-27 20:21 35.06000 -116.04121 5886 ft 215 kts 329°
2026-04-27 20:21 35.07194 -116.05199 5076 ft 215 kts 321°
2026-04-27 20:21 35.08323 -116.06331 4422 ft 204 kts 321°
2026-04-27 20:21 35.09393 -116.07408 3809 ft 195 kts 320°
2026-04-27 20:22 35.10389 -116.08477 3178 ft 188 kts 318°
2026-04-27 20:22 35.11347 -116.09515 2564 ft 182 kts 319°
2026-04-27 20:22 35.12331 -116.10450 1904 ft 177 kts 328°
2026-04-27 20:22 35.13493 -116.10761 1402 ft 173 kts 12°
2026-04-27 20:23 35.14650 -116.10434 975 ft 165 kts
2026-04-27 20:23 35.15557 -116.10015 1169 ft 118 kts 54°
2026-04-27 20:23 35.15454 -116.09139 1224 ft 118 kts 143°
2026-04-27 20:23 35.14639 -116.08898 1195 ft 128 kts 180°
2026-04-27 20:24 35.13758 -116.08993 1311 ft 126 kts 187°
2026-04-27 20:24 35.13035 -116.09413 1454 ft 112 kts 231°
2026-04-27 20:24 35.12856 -116.10252 1419 ft 102 kts 278°
2026-04-27 20:24 35.13323 -116.10781 1330 ft 96 kts 359°
2026-04-27 20:25 35.14004 -116.10592 1087 ft 101 kts 14°
2026-04-27 20:25 35.14622 -116.10433 960 ft 78 kts 10°
2026-04-27 20:25 35.14860 -116.10381 955 ft 1 kts 324°
2026-04-27 20:25 35.14806 -116.10397 958 ft 28 kts 192°
2026-04-27 20:26 35.14491 -116.10464 963 ft 39 kts 190°
2026-04-27 20:26 35.14399 -116.10498 961 ft 6 kts 249°
2026-04-27 20:26 35.14397 -116.10504 962 ft 0 kts 259°
2026-04-27 20:26 35.14374 -116.10513 962 ft 0 kts 251°
2026-04-27 20:27 35.14369 -116.10520 960 ft 0 kts 213°